Regional Weather Roundup
Issued by NWS

Home | Current Version | Previous Version | Text Only | Print | Product List | Glossary Off
Versions: 1 2 3 4 5 6 7 8 9 10 11 12 13 14 15 16 17 18 19 20 21 22 23 24 25 26 27 28 29 30 31 32 33 34 35 36 37 38 39 40 41 42 43 44 45 46 47 48 49 50

945
ASUS43 KDTX 290710
RWRMI
MICHIGAN HOURLY REGIONAL WEATHER ROUNDUP
NATIONAL WEATHER SERVICE DETROIT/PONTIAC MI
300 AM EDT WED MAR 29 2017

NOTE: "FAIR" INDICATES FEW OR NO CLOUDS BELOW 12,000 FEET WITH NO
SIGNIFICANT WEATHER AND/OR OBSTRUCTION TO VISIBILITY.

MIZ047>049-052>055-059>063-066>070-074>076-081>083-290800-
SOUTHEAST LOWER MICHIGAN

CITY           SKY/WX    TMP DP  RH WIND       PRES   REMARKS
ADRIAN         CLEAR     34  32  92 NE6       30.23R WCI  29
ALMA           FOG       29  29 100 CALM      30.26F VSB 1/2
ANN ARBOR      CLEAR     34  31  88 N6        30.23R WCI  29
BAD AXE        CLEAR     27  27  97 CALM      30.25S
CARO           CLEAR     28  28 100 CALM      30.24F
DETROIT CITY   CLEAR     35  31  85 N5        30.25R WCI  31
DETROIT        CLEAR     36  30  79 N7        30.24S WCI  30
GROSSE ILE     CLEAR     37  32  82 NE6       30.22F WCI  32
HILLSDALE      CLEAR     32  32 100 E5        30.21S WCI  27
HOWELL         CLEAR     32  30  92 CALM      30.24S

CITY           SKY/WX    TMP DP  RH WIND       PRES   REMARKS
JACKSON        LGT RAIN  35  32  88 NE3       30.23R
LAMBERTVILLE   CLEAR     35  33  92 CALM      30.23S
LANSING        CLEAR     32  29  88 CALM      30.25S
LAPEER         FAIR      30  30  99 CALM      30.25R
MASON          CLEAR     32  32 100 CALM      30.24S
MONROE         CLEAR     33  33  99 CALM      30.23R
MT. CLEMENS    CLEAR     33  32  94 CALM      30.23R
PONTIAC        CLEAR     34  28  79 NE3       30.23R
PORT HOPE        N/A     31  29  92 W5        30.23S WCI  26
PORT HURON     CLEAR     34  30  86 N3        30.24S
TRI CITIES     PTCLDY    33  31  92 N5        30.26R WCI  29
MIDLAND        FAIR      29  29  98 CALM      30.26R
TROY           CLEAR     36  31  81 CALM      30.26R
SAGINAW HB       N/A     32  30  93 CALM      30.25S FOG
$$
MIZ043>046-050>051-056>058-064>065-071>073-077>080-290800-
SOUTHWEST LOWER MICHIGAN

CITY           SKY/WX    TMP DP  RH WIND       PRES   REMARKS
BATTLE CREEK   CLEAR     33  31  92 CALM      30.23S
BENTON HARBOR  CLEAR     30  28  92 CALM      30.24R
BIG RAPIDS     CLEAR     33  31  94 CALM      30.24F
COLDWATER      FOG       31  31 100 CALM      30.21F VSB 1/2
FREMONT        FAIR      37  35  90 E6        30.24F WCI  32
HOLLAND        PTCLDY    31  29  92 CALM      30.25S FOG
GRAND RAPIDS   CLEAR     32  32 100 NE6       30.23F WCI  26
IONIA          FAIR      32  32  99 NE6       30.24F FOG     WCI  27
KALAMAZOO      CLEAR     33  31  92 N3        30.23S FOG
LUDINGTON      CLEAR     30  30 100 E3        30.23F
MARSHALL       CLEAR     35  35  97 CALM      30.22F
MOUNT PLEASANT CLEAR     32  31  96 CALM      30.25S FOG
MUSKEGON       CLEAR     31  29  92 CALM      30.24F
SOUTH HAVEN    CLEAR     32  31  99 CALM      30.24S
$$
MIZ016>042-290800-
NORTHERN LOWER MICHIGAN

CITY           SKY/WX    TMP DP  RH WIND       PRES   REMARKS
ALPENA         CLEAR     30  28  92 W5        30.25S WCI  25
BEAVER ISLAND  CLEAR     28  28 100 CALM      30.29R
BELLAIRE       CLEAR     29  28  95 CALM      30.29S
CADILLAC       CLEAR     28  26  96 CALM      30.23S
CHARLEVOIX     CLEAR     29  29 100 CALM      30.32R
FRANKFORT      CLEAR     30  27  91 CALM      30.27S
GAYLORD        CLEAR     30  24  78 NW3       30.25R
GRAYLING       CLEAR     25  23  93 CALM      30.26S
HARBOR SPRINGS CLEAR     28  28 100 CALM      30.28R
HOUGHTON LAKE  CLEAR     30  28  92 CALM      30.25S
MANISTEE       CLEAR     30  29  96 E6        30.25S WCI  24
OSCODA         CLEAR     29  27  92 NW8       30.24S WCI  21
PELLSTON       CLEAR     29  26  89 NW3       30.28R
ROGERS CITY    CLEAR     34  29  81 NW3       30.27S
TRAVERSE CITY  MOCLDY    30  27  88 CALM      30.28R
$$
MIZ007>008-015-290800-
EASTERN UPPER MICHIGAN

CITY           SKY/WX    TMP DP  RH WIND       PRES   REMARKS
KINROSS        FOG       29  28  96 N9        30.28R VSB 3/4 WCI  20
MACKINAC ISLAN CLEAR     30  30 100 N6        30.27R WCI  24
NEWBERRY       CLOUDY    30  29  97 N9        30.29S FOG     WCI  21
S. S. MARIE    CLEAR     30  26  85 NW5       30.27F WCI  25
MUNISING         N/A     30  29  96 CALM      30.33R
$$
MIZ004>006-011>014-085-290800-
CENTRAL UPPER MICHIGAN

CITY           SKY/WX    TMP DP  RH WIND       PRES   REMARKS
MANISTIQUE     CLEAR     31  30  97 N9        30.29S WCI  23
ESCANABA       CLEAR     26  24  92 CALM      30.30S
MENOMINEE        N/A    N/A N/A N/A MISG        N/A
SAWYER-GWINN   CLEAR     32  28  86 N10       30.30S WCI  23
$$
MIZ001>003-009>011-084-290800-
WESTERN UPPER MICHIGAN

CITY           SKY/WX    TMP DP  RH WIND       PRES   REMARKS
IRON MOUNTAIN  CLEAR     30  23  75 N3        30.27F
HOUGHTON       CLEAR     32  23  69 E7        30.32R WCI  26
COPPER HARBOR    N/A     32  28  85 CALM      30.35R
IRONWOOD       CLEAR     35  28  75 E13       30.26F WCI  26
$$

ABBREVIATIONS USED IN REMARKS
   TC - TEMPERATURE IN CELSIUS
  WCI - WIND CHILL INDEX
   HX - HEAT INDEX
  VSB - VISIBILITY





USA.gov is the U.S. government's official web portal to all federal, state and local government web resources and services.